This is the latest recevied weather packets stored in our database for station/object K1BES. If no packets are shown the sender has not sent any weather packets the latest 10 day(s).
| Time | Temp. | Humidity | Pressure | Rain* | Wind** | Luminosity | Snow |
|---|---|---|---|---|---|---|---|
| 1777667772 | 28.33° C | 69% | 1012.7 hPa | 0 mm | - | 356 W/m² | - |
| 1777667469 | 28.33° C | 70% | 1013.1 hPa | 0 mm | - | 104 W/m² | - |
| 1777667167 | 28.33° C | 70% | 1013.1 hPa | 0 mm | - | 99 W/m² | - |
| 1777666863 | 27.78° C | 71% | 1013.4 hPa | 0 mm | - | 104 W/m² | - |
| 1777666560 | 28.33° C | 68% | 1013.5 hPa | 0 mm | - | 104 W/m² | - |
| 1777666256 | 28.89° C | 68% | 1013.5 hPa | 0 mm | - | 114 W/m² | - |
| 1777665953 | 28.89° C | 67% | 1013.7 hPa | 0 mm | - | 408 W/m² | - |
| 1777665651 | 29.44° C | 67% | 1014 hPa | 0 mm | - | 739 W/m² | - |
| 1777665348 | 28.89° C | 66% | 1014 hPa | 0 mm | - | 773 W/m² | - |
| 1777665043 | 29.44° C | 65% | 1014.2 hPa | 0 mm | - | 711 W/m² | - |
| 1777664739 | 29.44° C | 66% | 1014.1 hPa | 0 mm | - | 809 W/m² | - |
| 1777664435 | 28.89° C | 68% | 1014.4 hPa | 0 mm | - | 822 W/m² | - |
| 1777664133 | 28.89° C | 68% | 1014.4 hPa | 0 mm | - | 834 W/m² | - |
| 1777663831 | 29.44° C | 66% | 1014.4 hPa | 0 mm | - | 851 W/m² | - |
| 1777663528 | 29.44° C | 65% | 1014.5 hPa | 0 mm | - | 849 W/m² | - |
| 1777663226 | 29.44° C | 65% | 1014.3 hPa | 0 mm | - | 878 W/m² | - |
| 1777662923 | 29.44° C | 63% | 1014.5 hPa | 0 mm | - | 884 W/m² | - |
| 1777662620 | 28.89° C | 65% | 1014.5 hPa | 0 mm | - | 904 W/m² | - |
| 1777662315 | 29.44° C | 66% | 1014.7 hPa | 0 mm | - | 916 W/m² | - |
| 1777662011 | 29.44° C | 67% | 1014.7 hPa | 0 mm | - | 928 W/m² | - |
| 1777661707 | 28.89° C | 68% | 1014.5 hPa | 0 mm | - | 943 W/m² | - |
| 1777661403 | 28.89° C | 69% | 1014.7 hPa | 0 mm | - | 955 W/m² | - |
| 1777661099 | 28.89° C | 70% | 1014.7 hPa | 0 mm | - | 968 W/m² | - |
| 1777660794 | 28.89° C | 69% | 1014.5 hPa | 0 mm | - | 979 W/m² | - |
| 1777660492 | 28.89° C | 69% | 1014.8 hPa | 0 mm | - | 996 W/m² | - |
* Rain latest hour (hover to see other rain measurements)
** Current wind speed in m/s (hover to see current wind gust speed)